Location: Bastelaar
(51.0950°N, 3.8602°E)
Time: 16:41:13
(UTC+00:00)

Cosmos 2084 Rocket - Pass Details

Date: 18 November 2025
Orbit: 549 x 566 km, 62.8° (Epoch: 08 December)

Event Time Altitude Azimuth Distance (km) Brightness Sun altitude
Rises 16:33:23 0° 226° (SW) 2,735 8.4 -6.5°
Reaches altitude 10° 16:35:35 10° 227° (SW) 1,846 7.4 -6.9°
Maximum altitude 16:39:45 83° 315° (NW) 573 3.4 -7.5°
Drops below altitude 10° 16:43:59 10° 45° (NE) 1,867 5.5 -8.1°
Enters shadow 16:44:19 - 45° (NE) 2,002 5.6 -8.1°
